TimePDT,TemperatureF,Dew PointF,Humidity,Sea Level PressureIn,VisibilityMPH,Wind Direction,Wind SpeedMPH,Gust SpeedMPH,PrecipitationIn,Events,Conditions,WindDirDegrees,DateUTC
12:53 AM,55.0,50.0,83,30.08,10.0,Calm,Calm,-,N/A,,Overcast,0,2011-10-26 07:53:00
1:53 AM,55.0,50.0,83,30.08,10.0,Calm,Calm,-,N/A,,Overcast,0,2011-10-26 08:53:00
2:53 AM,54.0,50.0,86,30.08,9.0,Calm,Calm,-,N/A,,Overcast,0,2011-10-26 09:53:00
3:53 AM,54.0,50.0,86,30.07,9.0,Calm,Calm,-,N/A,,Overcast,0,2011-10-26 10:53:00
5:53 AM,53.1,48.9,86,30.08,10.0,Calm,Calm,-,N/A,,Overcast,0,2011-10-26 12:53:00
6:53 AM,53.1,48.9,86,30.10,8.0,Calm,Calm,-,N/A,,Overcast,0,2011-10-26 13:53:00
7:53 AM,52.0,48.0,86,30.12,6.0,ENE,3.5,-,N/A,,Overcast,70,2011-10-26 14:53:00
8:53 AM,52.0,48.0,86,30.14,7.0,Calm,Calm,-,N/A,,Overcast,0,2011-10-26 15:53:00
9:35 AM,53.6,48.2,82,30.14,8.0,Calm,Calm,-,N/A,,Mostly Cloudy,0,2011-10-26 16:35:00
9:51 AM,55.4,48.2,77,30.14,9.0,Calm,Calm,-,N/A,,Scattered Clouds,0,2011-10-26 16:51:00
9:53 AM,55.0,48.0,77,30.14,9.0,Calm,Calm,-,N/A,,Partly Cloudy,0,2011-10-26 16:53:00
10:53 AM,60.1,48.0,64,30.14,10.0,Calm,Calm,-,N/A,,Clear,0,2011-10-26 17:53:00
12:53 PM,68.0,44.1,42,30.09,10.0,Calm,Calm,-,N/A,,Clear,0,2011-10-26 19:53:00
1:53 PM,68.0,45.0,43,30.08,10.0,South,6.9,-,N/A,,Clear,190,2011-10-26 20:53:00
2:53 PM,66.9,48.0,51,30.07,10.0,SW,6.9,-,N/A,,Clear,220,2011-10-26 21:53:00
3:53 PM,68.0,43.0,40,30.06,10.0,WSW,4.6,-,N/A,,Clear,240,2011-10-26 22:53:00
4:53 PM,66.0,46.0,48,30.05,10.0,SSE,3.5,-,N/A,,Clear,160,2011-10-26 23:53:00
5:53 PM,62.1,51.1,67,30.05,10.0,SE,4.6,-,N/A,,Clear,140,2011-10-27 00:53:00
6:53 PM,57.0,52.0,83,30.05,10.0,ESE,3.5,-,N/A,,Clear,120,2011-10-27 01:53:00
7:53 PM,55.9,50.0,80,30.06,9.0,Calm,Calm,-,N/A,,Clear,0,2011-10-27 02:53:00
8:53 PM,53.1,46.9,80,30.07,10.0,NW,3.5,-,N/A,,Clear,320,2011-10-27 03:53:00
9:53 PM,51.1,43.0,74,30.07,10.0,West,3.5,-,N/A,,Clear,280,2011-10-27 04:53:00
10:53 PM,48.9,39.9,71,30.07,10.0,NNW,5.8,-,N/A,,Clear,330,2011-10-27 05:53:00
11:53 PM,48.0,37.9,68,30.06,10.0,NW,3.5,-,N/A,,Clear,310,2011-10-27 06:53:00